sat.trackr.live / text

‹ back to catalog

UNKNOWN

NORAD 81392

UNKNOWN UNKNOWN UNKNOWN

§ Identity

Operator
Country
Launch date
Launch site
Launch vehicle
Mass (kg)
RCS (m²)

External: N2YO · Heavens-Above

§ Orbital elements

Epoch: 2026-09-18T07:26:58.845984Z

Period
104.10 min
Inclination
100.4034°
Eccentricity
0.0038923
Mean motion
13.83267415 rev/d
Perigee alt
923.8 km
Apogee alt
980.9 km
Semi-major
7,330.5 km
B*
1.8523e-3
RAAN
283.3521°
Arg perigee
42.6245°
Mean anomaly
331.4266°
Rev number
64,081

§ Raw data

UNKNOWN1 81392U          26261.31040331  .00001993  00000+0  18523-2 0  99972 81392 100.4034 283.3521 0038923  42.6245 331.4266 13.83267415640813

JSON: /api/v1/satellites/81392 · /tle

For live sub-satellite position, see the globe view (requires WebGL).

§ Visibility from observer

Set your observer location to see the next 7 days of passes ≥ 10°. The values pass through the URL so the page stays shareable.

No JS? Fill the form by hand. The geolocation button needs JavaScript.